| time (UTC) | temp F | wind direction | speed MPH | gust MPH | rain 1hr in | rain 24hr in | rain mn in | humidity % | barometer mb |
| 20260509150352 | 63 | 66 | 0.0 | 2.0 | 0.00 | 0.00 | 0.00 | 90 | 1011.7 |
| 20260509145352 | 63 | 32 | 1.0 | 3.0 | 0.00 | 0.00 | 0.00 | 90 | 1011.8 |
| 20260509144352 | 63 | 58 | 2.0 | 4.0 | 0.00 | 0.00 | 0.00 | 91 | 1011.7 |
| 20260509143352 | 62 | 69 | 3.0 | 4.0 | 0.00 | 0.00 | 0.00 | 91 | 1011.7 |
| 20260509141353 | 62 | 64 | 2.0 | 3.0 | 0.00 | 0.00 | 0.00 | 92 | 1011.7 |
| 20260509140352 | 62 | 105 | 1.0 | 2.0 | 0.00 | 0.00 | 0.00 | 92 | 1011.7 |
| 20260509135352 | 62 | 30 | 0.0 | 2.0 | 0.00 | 0.00 | 0.00 | 93 | 1011.6 |
| 20260509134352 | 61 | 66 | 1.0 | 2.0 | 0.00 | 0.00 | 0.00 | 93 | 1011.6 |
| 20260509133352 | 61 | 159 | 1.0 | 2.0 | 0.00 | 0.00 | 0.00 | 93 | 1011.6 |
| 20260509132352 | 61 | 134 | 1.0 | 3.0 | 0.00 | 0.00 | 0.00 | 93 | 1011.5 |
| 20260509131352 | 61 | 96 | 0.0 | 3.0 | 0.00 | 0.00 | 0.00 | 93 | 1011.3 |
| 20260509130352 | 61 | 145 | 1.0 | 2.0 | 0.00 | 0.00 | 0.00 | 93 | 1011.1 |
| 20260509125352 | 61 | 138 | 1.0 | 3.0 | 0.00 | 0.00 | 0.00 | 93 | 1011.1 |
| 20260509124352 | 61 | 141 | 2.0 | 2.0 | 0.00 | 0.00 | 0.00 | 94 | 1011.0 |
| 20260509123352 | 61 | 141 | 1.0 | 3.0 | 0.00 | 0.00 | 0.00 | 94 | 1010.9 |
| 20260509122352 | 61 | 141 | 1.0 | 4.0 | 0.00 | 0.00 | 0.00 | 94 | 1010.9 |
| 20260509121352 | 61 | 163 | 1.0 | 3.0 | 0.00 | 0.00 | 0.00 | 94 | 1011.0 |
| 20260509120351 | 61 | 133 | 0.0 | 2.0 | 0.00 | 0.00 | 0.00 | 94 | 1010.9 |
| 20260509115352 | 61 | 165 | 2.0 | 2.0 | 0.00 | 0.00 | 0.00 | 95 | 1011.0 |
| 20260509114351 | 61 | 177 | 1.0 | 1.0 | 0.00 | 0.00 | 0.00 | 95 | 1011.0 |
| 20260509113352 | 61 | 177 | 1.0 | 2.0 | 0.00 | 0.00 | 0.00 | 95 | 1011.0 |
| 20260509112351 | 61 | 232 | 0.0 | 2.0 | 0.00 | 0.00 | 0.00 | 95 | 1011.0 |
| 20260509110352 | 61 | 166 | 0.0 | 3.0 | 0.00 | 0.00 | 0.00 | 95 | 1010.9 |
| 20260509105351 | 61 | 227 | 2.0 | 2.0 | 0.00 | 0.00 | 0.00 | 95 | 1011.0 |
| 20260509104351 | 61 | 234 | 0.0 | 2.0 | 0.00 | 0.00 | 0.00 | 95 | 1011.1 |
| 20260509103352 | 61 | 238 | 0.0 | 2.0 | 0.00 | 0.00 | 0.00 | 94 | 1011.0 |
| 20260509102352 | 61 | 233 | 0.0 | 2.0 | 0.00 | 0.00 | 0.00 | 94 | 1011.1 |
| 20260509101351 | 61 | 233 | 0.0 | 2.0 | 0.00 | 0.00 | 0.00 | 94 | 1011.2 |
| 20260509100352 | 61 | 233 | 0.0 | 1.0 | 0.00 | 0.00 | 0.00 | 95 | 1011.3 |
| 20260509094351 | 60 | 252 | 1.0 | 2.0 | 0.00 | 0.00 | 0.00 | 95 | 1011.5 |
| 20260509093351 | 60 | 246 | 0.0 | 3.0 | 0.00 | 0.00 | 0.00 | 94 | 1011.6 |
| 20260509092352 | 60 | 195 | 0.0 | 2.0 | 0.00 | 0.00 | 0.00 | 94 | 1011.5 |
| 20260509091351 | 60 | 213 | 0.0 | 3.0 | 0.00 | 0.00 | 0.00 | 94 | 1011.7 |
| 20260509090351 | 61 | 277 | 0.0 | 3.0 | 0.00 | 0.00 | 0.00 | 94 | 1011.7 |
| 20260509085352 | 61 | 220 | 0.0 | 2.0 | 0.00 | 0.00 | 0.00 | 94 | 1011.8 |
| 20260509084351 | 61 | 215 | 2.0 | 4.0 | 0.00 | 0.00 | 0.00 | 94 | 1011.9 |
| 20260509083351 | 61 | 252 | 0.0 | 3.0 | 0.00 | 0.00 | 0.00 | 93 | 1011.9 |
| 20260509081351 | 61 | 171 | 0.0 | 3.0 | 0.00 | 0.00 | 0.00 | 93 | 1012.1 |
| 20260509080352 | 61 | 225 | 1.0 | 3.0 | 0.00 | 0.00 | 0.00 | 93 | 1012.0 |
| 20260509075352 | 61 | 205 | 2.0 | 3.0 | 0.00 | 0.00 | 0.00 | 93 | 1012.2 |
| 20260509074351 | 61 | 167 | 0.0 | 2.0 | 0.00 | 0.00 | 0.00 | 93 | 1012.2 |
| 20260509073351 | 61 | 238 | 1.0 | 2.0 | 0.00 | 0.00 | 0.00 | 93 | 1012.2 |
| 20260509071351 | 61 | 269 | 1.0 | 2.0 | 0.00 | 0.00 | 0.00 | 93 | 1012.2 |
| 20260509064351 | 60 | 195 | 0.0 | 2.0 | 0.00 | 0.00 | 0.00 | 93 | 1012.3 |
| 20260509063351 | 60 | 240 | 1.0 | 3.0 | 0.00 | 0.00 | 0.00 | 93 | 1012.3 |
| 20260509062351 | 60 | 238 | 1.0 | 3.0 | 0.00 | 0.00 | 0.00 | 93 | 1012.3 |
| 20260509061352 | 60 | 233 | 1.0 | 3.0 | 0.00 | 0.00 | 0.00 | 93 | 1012.4 |
| 20260509060351 | 60 | 333 | 1.0 | 3.0 | 0.00 | 0.00 | 0.00 | 93 | 1012.3 |
| 20260509055351 | 60 | 318 | 0.0 | 2.0 | 0.00 | 0.00 | 0.00 | 93 | 1012.4 |
| 20260509054351 | 61 | 282 | 1.0 | 4.0 | 0.00 | 0.00 | 0.00 | 93 | 1012.4 |
| 20260509051352 | 60 | 269 | 1.0 | 2.0 | 0.00 | 0.00 | 0.00 | 93 | 1012.4 |
| 20260509050351 | 60 | 259 | 0.0 | 3.0 | 0.00 | 0.00 | 0.00 | 93 | 1012.4 |
| 20260509045351 | 60 | 211 | 0.0 | 4.0 | 0.00 | 0.00 | 0.00 | 93 | 1012.3 |
| 20260509044351 | 61 | 229 | 2.0 | 4.0 | 0.00 | 0.00 | 0.00 | 93 | 1012.2 |
| 20260509042351 | 60 | 263 | 0.0 | 3.0 | 0.00 | 0.00 | 0.00 | 93 | 1012.2 |
| 20260509041352 | 60 | 229 | 2.0 | 5.0 | 0.00 | 0.00 | 0.00 | 93 | 1012.1 |
| 20260509040351 | 60 | 262 | 0.0 | 4.0 | 0.00 | 0.00 | 0.00 | 93 | 1012.1 |
| 20260509035351 | 60 | 317 | 2.0 | 6.0 | 0.00 | 0.00 | 0.00 | 93 | 1012.2 |
| 20260509034351 | 60 | 313 | 2.0 | 4.0 | 0.00 | 0.00 | 0.00 | 93 | 1012.0 |
| 20260509033351 | 61 | 321 | 2.0 | 6.0 | 0.00 | 0.00 | 0.00 | 93 | 1011.9 |
| 20260509032351 | 61 | 226 | 2.0 | 6.0 | 0.00 | 0.00 | 0.00 | 92 | 1011.9 |
| 20260509031351 | 61 | 283 | 2.0 | 4.0 | 0.00 | 0.00 | 0.00 | 93 | 1011.8 |
| 20260509024352 | 61 | 285 | 2.0 | 5.0 | 0.00 | 0.00 | 0.00 | 92 | 1011.5 |
| 20260509023351 | 62 | 15 | 1.0 | 5.0 | 0.00 | 0.00 | 0.00 | 92 | 1011.5 |
| 20260509022351 | 62 | 299 | 1.0 | 7.0 | 0.00 | 0.00 | 0.00 | 92 | 1011.6 |
| 20260509021352 | 62 | 229 | 3.0 | 4.0 | 0.00 | 0.00 | 0.00 | 91 | 1011.6 |
| 20260509020351 | 62 | 341 | 4.0 | 4.0 | 0.00 | 0.00 | 0.00 | 91 | 1011.6 |
| 20260509015351 | 62 | 264 | 1.0 | 5.0 | 0.00 | 0.00 | 0.00 | 91 | 1011.6 |
| 20260509014351 | 63 | 259 | 3.0 | 6.0 | 0.00 | 0.00 | 0.00 | 90 | 1011.4 |
| 20260509013351 | 63 | 9 | 0.0 | 6.0 | 0.00 | 0.00 | 0.00 | 90 | 1011.4 |
| 20260509012351 | 63 | 246 | 2.0 | 7.0 | 0.00 | 0.00 | 0.00 | 90 | 1011.5 |
| 20260509003350 | 65 | 253 | 2.0 | 5.0 | 0.00 | 0.00 | 0.00 | 88 | 1011.4 |
| 20260509001350 | 65 | 298 | 1.0 | 7.0 | 0.00 | 0.00 | 0.00 | 88 | 1011.2 |
| 20260509000350 | 65 | 343 | 4.0 | 7.0 | 0.00 | 0.00 | 0.00 | 88 | 1011.3 |
| 20260508235351 | 65 | 217 | 2.0 | 8.0 | 0.00 | 0.00 | 0.00 | 87 | 1011.2 |
| 20260508233350 | 66 | 229 | 4.0 | 8.0 | 0.00 | 0.00 | 0.00 | 87 | 1011.4 |
| 20260508232351 | 66 | 240 | 6.0 | 8.0 | 0.00 | 0.00 | 0.00 | 85 | 1011.5 |
| 20260508231351 | 66 | 294 | 1.0 | 8.0 | 0.00 | 0.00 | 0.00 | 84 | 1011.6 |
| 20260508230351 | 67 | 263 | 4.0 | 7.0 | 0.00 | 0.00 | 0.00 | 83 | 1011.6 |
| 20260508225351 | 67 | 248 | 1.0 | 7.0 | 0.00 | 0.00 | 0.00 | 83 | 1011.7 |
| 20260508224351 | 67 | 278 | 4.0 | 8.0 | 0.00 | 0.00 | 0.00 | 83 | 1011.8 |
| 20260508223351 | 67 | 243 | 1.0 | 9.0 | 0.00 | 0.00 | 0.00 | 83 | 1011.9 |
| 20260508222350 | 67 | 306 | 2.0 | 9.0 | 0.00 | 0.00 | 0.00 | 83 | 1012.2 |
| 20260508221351 | 67 | 231 | 3.0 | 8.0 | 0.00 | 0.00 | 0.00 | 84 | 1012.3 |
| 20260508215351 | 67 | 211 | 3.0 | 9.0 | 0.00 | 0.00 | 0.00 | 85 | 1012.8 |
| 20260508214351 | 67 | 252 | 3.0 | 9.0 | 0.00 | 0.00 | 0.00 | 84 | 1012.8 |
| 20260508213351 | 67 | 235 | 6.0 | 10.0 | 0.00 | 0.00 | 0.00 | 84 | 1012.9 |
| 20260508212350 | 67 | 240 | 4.0 | 8.0 | 0.00 | 0.00 | 0.00 | 83 | 1012.9 |
| 20260508211350 | 67 | 265 | 4.0 | 8.0 | 0.00 | 0.00 | 0.00 | 85 | 1012.9 |
| 20260508210350 | 67 | 334 | 2.0 | 8.0 | 0.00 | 0.00 | 0.00 | 84 | 1012.9 |
| 20260508205351 | 67 | 281 | 6.0 | 8.0 | 0.00 | 0.00 | 0.00 | 84 | 1013.4 |
| 20260508204350 | 66 | 290 | 3.0 | 7.0 | 0.00 | 0.00 | 0.00 | 85 | 1013.4 |
| 20260508203350 | 66 | 230 | 4.0 | 8.0 | 0.00 | 0.00 | 0.00 | 85 | 1013.1 |
| 20260508202351 | 66 | 250 | 2.0 | 8.0 | 0.00 | 0.00 | 0.00 | 86 | 1013.6 |
| 20260508201350 | 66 | 248 | 3.0 | 8.0 | 0.00 | 0.00 | 0.00 | 85 | 1013.5 |
| 20260508200350 | 66 | 256 | 2.0 | 7.0 | 0.00 | 0.00 | 0.00 | 85 | 1013.5 |
| 20260508195351 | 67 | 224 | 4.0 | 8.0 | 0.00 | 0.00 | 0.00 | 85 | 1013.3 |
| 20260508194351 | 66 | 250 | 4.0 | 7.0 | 0.00 | 0.00 | 0.00 | 85 | 1013.5 |
| 20260508193350 | 66 | 250 | 3.0 | 7.0 | 0.00 | 0.00 | 0.00 | 86 | 1013.6 |
| 20260508192351 | 65 | 246 | 2.0 | 9.0 | 0.00 | 0.00 | 0.00 | 87 | 1013.6 |
| 20260508190351 | 65 | 253 | 3.0 | 7.0 | 0.00 | 0.00 | 0.00 | 88 | 1014.0 |
| 20260508185350 | 65 | 257 | 2.0 | 6.0 | 0.00 | 0.00 | 0.00 | 88 | 1014.2 |
| 20260508183350 | 64 | 302 | 1.0 | 6.0 | 0.00 | 0.00 | 0.00 | 88 | 1014.3 |
| 20260508182350 | 64 | 272 | 4.0 | 6.0 | 0.00 | 0.00 | 0.00 | 89 | 1014.3 |
| 20260508181350 | 64 | 251 | 4.0 | 7.0 | 0.00 | 0.00 | 0.00 | 89 | 1014.2 |
| 20260508175350 | 65 | 195 | 2.0 | 6.0 | 0.00 | 0.00 | 0.00 | 87 | 1014.2 |
| 20260508173350 | 66 | 158 | 1.0 | 4.0 | 0.00 | 0.00 | 0.00 | 85 | 1014.3 |
| 20260508172350 | 65 | 171 | 1.0 | 3.0 | 0.00 | 0.00 | 0.00 | 86 | 1014.4 |
| 20260508171350 | 65 | 140 | 1.0 | 4.0 | 0.00 | 0.00 | 0.00 | 86 | 1014.5 |
| 20260508170350 | 65 | 246 | 1.0 | 3.0 | 0.00 | 0.00 | 0.00 | 86 | 1014.3 |
| 20260508165350 | 65 | 150 | 1.0 | 4.0 | 0.00 | 0.00 | 0.00 | 86 | 1014.3 |
| 20260508164350 | 65 | 89 | 1.0 | 4.0 | 0.00 | 0.00 | 0.00 | 87 | 1014.2 |
| 20260508163350 | 64 | 136 | 1.0 | 4.0 | 0.00 | 0.00 | 0.00 | 88 | 1014.2 |
| 20260508161350 | 64 | 143 | 1.0 | 4.0 | 0.00 | 0.00 | 0.00 | 89 | 1014.3 |
| 20260508160350 | 64 | 115 | 1.0 | 6.0 | 0.00 | 0.00 | 0.00 | 89 | 1014.2 |
| 20260508155351 | 64 | 170 | 0.0 | 4.0 | 0.00 | 0.00 | 0.00 | 89 | 1014.2 |
| 20260508154350 | 63 | 109 | 1.0 | 4.0 | 0.00 | 0.00 | 0.00 | 90 | 1014.1 |
| 20260508153351 | 63 | 144 | 2.0 | 4.0 | 0.00 | 0.00 | 0.00 | 90 | 1014.1 |
| 20260508152350 | 63 | 107 | 1.0 | 3.0 | 0.00 | 0.00 | 0.00 | 91 | 1014.2 |
| 20260508151350 | 63 | 71 | 1.0 | 3.0 | 0.00 | 0.00 | 0.00 | 91 | 1014.2 |